Flag for Guadeloupe Weather past 2 weeks in Basse-Terre, Guadeloupe

Now
79 °F

Partly sunny.


Feels Like: 81 °F
Forecast: 72 / 81 °F
Wind: 7 mph from East

Location: Le Raizet - Guadeloupe

Current Time: Apr 21, 2015 at 7:52:52 AM

Latest Report: Apr 21, 2015 at 7:30 AM


Visibility: N/A

Pressure: 30.01 "Hg

Humidity: 65%

Dew point: 66 °F

Location of Basse-TerreLocation

Historic Weather in Basse-Terre — Graph

°F

Basse-Terre temperature yesterday

Maximum temperature yesterday: 86 °F (at 12:00 PM)
Minimum temperature yesterday: 73 °F (at 5:00 AM)
Average temperature yesterday: 78 °F

Past Weeks' High & Low Weather Summary

 TemperatureHumidityPressure
High86 °F (Apr 13, 11:30 AM)94% (Apr 19, 5:30 AM)30.12 "Hg (Apr 19, 5:30 AM)
Low70 °F (Apr 21, 2:00 AM)48% (Apr 8, 12:00 PM)29.95 "Hg (Apr 6, 2:30 PM)
Average78 °F72%30.02 "Hg
* Reported Apr 6 7:00 AM — Apr 21 7:00 AM, Basse-Terre, Weather by CustomWeather, © 2015

Note: Actual official high and low records may vary slightly from our data, if they occured in-between our weather recording intervals... More about our weather records

Advertising

Basse-Terre weather history for previous 24 hours

 ConditionsComfort  
Time TempWeatherWind HumidityBarometerVisibility
7:00 AM
Tue, Apr 21
72 °FPassing clouds.No wind88%30.01 "HgN/A
6:30 AM72 °FClear.No wind78%30.01 "HgN/A
6:00 AM70 °FClear.No wind83%30.01 "HgN/A
5:30 AM70 °FClear.No wind83%29.98 "HgN/A
5:00 AM72 °FClear.No wind78%29.98 "HgN/A
4:30 AM72 °FClear.No wind78%29.98 "HgN/A
4:00 AM70 °FPassing clouds.1 mph83%29.98 "HgN/A
3:30 AM73 °FPassing clouds.3 mph78%29.98 "HgN/A
3:00 AM72 °FClear.No wind78%29.95 "HgN/A
2:30 AM72 °FClear.No wind83%29.98 "HgN/A
2:00 AM70 °FPassing clouds.No wind88%29.98 "HgN/A
1:30 AM72 °FClear.No wind83%29.98 "HgN/A
1:00 AM73 °FClear.No wind78%29.98 "HgN/A
12:30 AM73 °FPassing clouds.2 mph78%30.01 "HgN/A
12:00 AM73 °FPassing clouds.3 mph78%30.01 "HgN/A
11:30 PM
Mon, Apr 20
73 °FClear.3 mph78%30.01 "HgN/A
11:00 PM75 °FClear.3 mph74%30.01 "HgN/A
10:30 PM75 °FClear.6 mph74%30.04 "HgN/A
10:00 PM75 °FClear.6 mph74%30.04 "HgN/A
9:30 PM75 °FClear.6 mph74%30.01 "HgN/A
9:00 PM75 °FClear.7 mph74%30.01 "HgN/A
8:30 PM75 °FClear.6 mph74%30.01 "HgN/A
8:00 PM77 °FClear.6 mph69%30.01 "HgN/A
7:30 PM77 °FClear.6 mph69%30.01 "HgN/A
7:00 PM79 °FPassing clouds.7 mph70%29.98 "HgN/A
6:00 PM81 °FScattered clouds.12 mph66%29.98 "HgN/A
5:30 PM82 °FScattered clouds.12 mph58%29.98 "HgN/A
5:00 PM82 °FScattered clouds.12 mph58%29.95 "HgN/A
4:30 PM82 °FScattered clouds.14 mph58%29.95 "HgN/A
4:00 PM84 °FScattered clouds.15 mph55%29.95 "HgN/A
3:00 PM84 °FScattered clouds.14 mph58%29.98 "HgN/A
2:00 PM84 °FScattered clouds.14 mph58%29.98 "HgN/A
1:30 PM86 °FScattered clouds.14 mph55%30.01 "HgN/A
1:00 PM84 °FScattered clouds.14 mph55%30.01 "HgN/A
12:00 PM86 °FScattered clouds.13 mph52%30.04 "HgN/A
11:30 AM84 °FScattered showers. Scattered clouds.15 mph55%30.04 "HgN/A
11:00 AM84 °FScattered clouds.14 mph55%30.04 "HgN/A
10:30 AM84 °FScattered clouds.13 mph58%30.04 "HgN/A
10:00 AM84 °FScattered clouds.13 mph58%30.04 "HgN/A
9:30 AM82 °FScattered clouds.12 mph62%30.04 "HgN/A
9:00 AMN/AScattered clouds.14 mphN/A30.04 "HgN/A
8:30 AMN/AScattered clouds.13 mphN/A30.04 "HgN/A
8:00 AMN/AScattered clouds.10 mphN/A30.04 "HgN/A
7:30 AM79 °FPassing clouds.8 mph74%30.01 "HgN/A
7:00 AM77 °FScattered clouds.3 mph79%30.01 "HgN/A
Weather by CustomWeather, © 2015

See weather overviewHow to use our weather pages